Location: Nelson
(38.9945°N, 93.0321°W)
Time: 17:18:29
(UTC+00:00)

ACS3 Solar Sail - Pass Details

Date: 03 July 2024
Orbit: 992 x 1023 km, 97.4° (Epoch: 14 July)

Event Time Altitude Azimuth Distance (km) Brightness Sun altitude
Exits shadow 04:49:00 15° 227° (SW) 2,406 6.6 -24.8°
Maximum altitude 04:52:28 23° 268° (W) 1,956 6.5 -25.0°
Drops below altitude 10° 04:57:18 10° 320° (NW) 2,762 8.1 -25.4°
Sets 05:00:22 0° 334° (NNW) 3,716 9.2 -25.6°
